#timestamp,LO_Frequency,Hit,StdDev 
1543755615.6,286047001.0,N
1543755635.5,286046997.0,N
1543755655.3,286046999.6,N
1543755675.1,286047000.8,N
1543755695.9,286046996.6,N
1543755715.7,286046999.6,N
1543755735.6,286046999.3,N
1543755755.4,286046999.5,N
1543755775.2,286046996.8,N
1543755795.1,286046997.4,N
1543755796.0,286046997.4,N
1543755815.8,286046999.6,N
1543755835.6,286046999.1,N
1543755855.5,286046998.5,N
1543755875.3,286046999.3,N
1543755895.2,286047000.3,N
1543755915.9,286047002.8,N
1543755935.7,286047000.5,N
1543755955.6,286047000.7,N
1543755975.4,286047002.3,N
1543755995.2,286047003.8,N
1543756015.1,286047001.4,N
1543756016.0,286047001.4,N
1543756035.8,286047001.9,N
1543756055.7,286047002.2,N
1543756075.5,286047001.5,N
1543756095.3,286047002.1,N
1543756115.2,286047000.5,N
1543756135.1,286046999.8,N
1543756155.9,286047000.0,N
1543756175.7,286047000.8,N
1543756195.5,286047000.3,N
1543756215.4,286047000.8,N
1543756235.2,286047000.0,N
1543756255.0,286047000.7,N
1543756255.9,286047000.7,N
1543756275.8,286047000.8,N
1543756295.6,286046998.2,N
1543756315.7,286046999.0,N
1543756335.5,286046998.4,N
1543756355.3,286046999.4,N
1543756375.2,286046996.5,N
1543756395.9,286046996.5,N
1543756415.7,286046999.2,N
1543756435.6,286046996.8,N
1543756455.4,286046997.4,N
1543756475.2,286046997.1,N
1543756495.1,286046997.4,N
1543756496.0,286046997.4,N
1543756515.8,286046996.9,N
1543756535.7,286046998.8,N
1543756555.5,286046999.6,N
1543756575.3,286046998.3,N
1543756595.2,286046998.2,N
1543756615.0,286047000.9,N
1543756615.9,286047000.9,N
1543756635.8,286046998.9,N
1543756655.6,286046996.6,N
1543756675.4,286046997.9,N
1543756695.3,286046997.9,N
1543756715.1,286046996.6,N
1543756735.9,286046997.0,N
1543756755.7,286046997.3,N
1543756775.5,286046999.5,N
1543756795.4,286046999.3,N
1543756815.2,286047000.9,N
1543756835.0,286047000.6,N
1543756835.9,286047000.6,N
1543756855.8,286047000.8,N
1543756875.6,286047001.1,N
1543756895.5,286047001.0,N
1543756915.3,286047001.0,N
1543756935.1,286046998.1,N
1543756955.9,286047000.9,N
1543756975.7,286047000.8,N
1543756995.6,286047001.2,N
1543757015.4,286047000.8,N
1543757035.2,286046999.8,N
1543757055.1,286047004.0,N
1543757056.0,286047004.0,N
1543757075.8,286047004.3,N
1543757095.6,286047003.7,N
1543757115.5,286047004.0,N
1543757135.3,286047001.9,N
1543757155.2,286047003.8,N
1543757175.0,286047005.5,N
1543757175.9,286047005.5,N
1543757195.7,286047005.8,N
1543757215.6,286047004.7,N
1543757235.4,286047004.5,N
1543757255.3,286047006.1,N
1543757275.1,286047007.8,Y
1543757295.8,286047009.1,P
1543757315.7,286047008.2,N
1543757335.5,286047008.2,N
1543757355.4,286047006.2,N
1543757375.2,286047010.4,Y
1543757395.0,286047003.8,P
1543757395.9,286047003.8,N
1543757415.8,286047001.3,N
1543757435.6,286047002.2,N
1543757455.4,286047004.0,N
1543757475.3,286047002.8,N
1543757495.1,286047002.3,N
1543757515.9,286047001.7,N
1543757535.7,286047000.0,N
1543757555.5,286047000.0,N
1543757575.4,286047000.1,N
1543757595.2,286047000.8,N
1543757615.1,286046999.2,N
1543757616.0,286046999.2,N
1543757635.8,286046996.8,N
1543757655.6,286046997.1,N
1543757675.5,286046999.1,N
1543757695.3,286047000.9,N
1543757715.1,286046998.3,N
1543757735.9,286047000.8,N
1543757755.7,286046998.5,N
1543757775.6,286046998.6,N
1543757795.4,286046998.7,N
1543757815.2,286046998.5,N
1543757835.1,286046998.2,N
1543757836.0,286046998.2,N
1543757855.8,286046998.8,N
1543757875.6,286046996.9,N
1543757895.5,286046999.4,N
1543757915.3,286046998.7,N
1543757935.2,286046997.2,N
1543757955.9,286046996.5,N
1543757975.7,286046998.8,N
1543757995.6,286046997.5,N
1543758015.4,286046995.4,N
1543758035.3,286046998.0,N
1543758055.1,286046995.0,Y
1543758056.0,286046995.0,P
1543758075.8,286046997.7,N
1543758095.7,286046999.0,N
1543758115.5,286046998.8,N
1543758135.3,286046996.5,N
1543758155.2,286046997.7,N
1543758175.0,286046995.0,Y
1543758175.9,286046995.0,P
1543758195.8,286047001.2,N
1543758215.6,286047000.8,N
1543758235.4,286047001.1,N
1543758255.3,286047001.0,N
1543758275.1,286047002.4,N
1543758295.9,286047000.2,N
1543758315.7,286047000.4,N
1543758335.5,286047001.2,N
1543758355.4,286046999.2,N
1543758375.2,286046997.0,N
1543758395.0,286046996.8,N
1543758395.9,286046996.8,N
1543758415.8,286046996.6,N
1543758435.6,286046996.6,N
1543758455.5,286046997.2,N
1543758475.3,286046998.0,N
1543758495.1,286046994.9,N
1543758515.9,286046997.5,N
1543758535.7,286046999.6,N
1543758555.5,286046999.4,N
1543758575.4,286046996.8,N
1543758595.2,286046996.6,N
1543758615.1,286046997.6,N
1543758616.0,286046997.6,N
1543758635.8,286046997.7,N
1543758655.6,286046998.0,N
1543758675.5,286046997.7,N
1543758695.3,286046997.3,N
1543758715.1,286046998.0,N
1543758735.9,286046996.3,N
1543758755.7,286046993.8,Y
1543758775.6,286046997.1,P
1543758795.4,286046997.1,P
1543758815.2,286046999.2,N
1543758835.1,286046999.6,N
1543758836.0,286046999.6,N
1543758855.8,286046999.5,N
1543758875.6,286046997.1,N
1543758895.5,286046997.4,N
1543758915.3,286046996.8,N
1543758965.2,286046999.6,E
1543758975.1,286046996.6,N
1543758995.8,286046997.0,P
1543759015.7,286046999.5,N
1543759035.5,286046998.3,N
1543759055.4,286046998.4,N
1543759075.2,286047001.1,N
1543759095.0,286046999.4,N
1543759095.9,286046999.4,N
1543759115.8,286046997.1,N
1543759135.6,286046997.8,N
1543759155.4,286046998.0,N
1543759175.3,286046997.6,N
1543759195.1,286046995.3,Y
